Tucson Davis Monthan, AZ

7:29 PM MST on December 06, 2019 (GMT -0700)
Davis-Monthan Air Force Base

Weather History for KDMA - October, 2019

Change the Weather History Date:

Saturday, October 26, 2019

  Actual Average Record
Temperature  
Mean Temperature 68 °F -  
Max Temperature 82 °F 80 °F 96 °F (2001)
Min Temperature 54 °F 52 °F 39 °F (1996)
Cooling Degree Days 3    
Growing Degree Days 18 (Base 50)    
Moisture  
Dew Point 16 °F    
Average Humidity 15    
Maximum Humidity 25    
Minimum Humidity 6    
Precipitation  
Precipitation 0.00 in - - ()
Sea Level Pressure  
Sea Level Pressure 29.83 in    
Wind  
Wind Speed 12 mph (East)    
Max Wind Speed 21 mph    
Max Gust Speed -    
Visibility 10 miles    
Events      
Averages and records for this station are not official NWS values.
T = Trace of Precipitation, MM = Missing Value Source: NWS Daily Summary

Daily Weather History Graph

Daily Weather History Graph

Search for Another Location

Airport or City:

Astronomy

Oct. 26, 2019 Rise Set
Actual Time 6:35 AM MST 5:39 PM MST
Civil Twilight 6:10 AM MST 6:04 PM MST
Nautical Twilight 5:41 AM MST 6:32 PM MST
Astronomical Twilight 5:13 AM MST 7:01 PM MST
Moon 4:46 AM MST (10/26) 5:07 PM MST (10/26)
Length of Visible Light 11h 53m
Length of Day
11h 03m
Waning Crescent, 3% of the Moon is Illuminated
Oct 26
Waning Crescent
Oct 27
New
Nov 4
First Quarter
Nov 12
Full
Nov 19
Last Quarter

Hourly Weather History & Observations

Time (MST) Temp. Dew Point Humidity Pressure Visibility Wind Dir Wind Speed Gust Speed Precip Events Conditions
12:58 AM 58.8 °F 16.7 °F 19% 29.94 in 10.0 mi ESE 13.8 mph - N/A   Clear
1:58 AM 59.4 °F 15.8 °F 18% 29.93 in 10.0 mi East 16.1 mph - N/A   Clear
2:58 AM 57.7 °F 15.8 °F 19% 29.91 in 10.0 mi East 20.7 mph - N/A   Clear
3:58 AM 57.2 °F 16.5 °F 20% 29.89 in 10.0 mi East 17.3 mph - N/A   Clear
4:58 AM 56.7 °F 16.0 °F 20% 29.89 in 10.0 mi East 12.7 mph - N/A   Clear
5:58 AM 54.3 °F 16.3 °F 22% 29.90 in 10.0 mi East 13.8 mph - N/A   Clear
6:58 AM 55.0 °F 15.8 °F 21% 29.91 in 10.0 mi East 18.4 mph - N/A   Clear
7:58 AM 58.5 °F 17.6 °F 20% 29.90 in 10.0 mi ESE 15.0 mph - N/A   Clear
8:58 AM 65.1 °F 17.8 °F 16% 29.89 in 10.0 mi East 12.7 mph - N/A   Clear
9:58 AM 70.0 °F 16.9 °F 13% 29.87 in 10.0 mi ESE 12.7 mph - N/A   Clear
10:58 AM 74.7 °F 16.7 °F 11% 29.86 in 10.0 mi SE 9.2 mph - N/A   Clear
11:58 AM 78.1 °F 14.5 °F 9% 29.82 in 10.0 mi East 4.6 mph - N/A   Clear
12:58 PM 80.1 °F 13.5 °F 8% 29.79 in 10.0 mi SW 5.8 mph - N/A   Clear
1:58 PM 81.5 °F 8.1 °F 6% 29.76 in 10.0 mi West 4.6 mph - N/A   Clear
2:58 PM 82.8 °F 9.0 °F 6% 29.75 in 10.0 mi West 4.6 mph - N/A   Clear
3:58 PM 82.8 °F 12.4 °F 7% 29.74 in 10.0 mi North 5.8 mph - N/A   Clear
4:58 PM 81.1 °F 11.1 °F 7% 29.74 in 10.0 mi NW 6.9 mph - N/A   Clear
5:58 PM 73.4 °F 13.5 °F 10% 29.76 in 10.0 mi NNW 4.6 mph - N/A   Clear
6:58 PM 70.3 °F 15.3 °F 12% 29.77 in 10.0 mi Calm Calm - N/A   Clear
7:58 PM 65.5 °F 18.1 °F 16% 29.78 in 10.0 mi Calm Calm - N/A   Clear
8:58 PM 62.1 °F 19.2 °F 19% 29.79 in 10.0 mi SE 6.9 mph - N/A   Clear
9:58 PM 58.6 °F 19.9 °F 22% 29.79 in 10.0 mi East 8.1 mph - N/A   Clear
10:58 PM 56.3 °F 20.8 °F 25% 29.79 in 10.0 mi ESE 3.5 mph - N/A   Clear
11:58 PM 58.3 °F 20.7 °F 23% 29.79 in 10.0 mi Calm Calm - N/A   Clear